| time (UTC) | temp C | wind direction | speed KPH | gust KPH | rain 1hr cm | rain 24hr cm | rain mn cm | humidity % | barometer mb |
| 20260504040025 | 15 | 214 | 0.0 | 6.4 | 0.00 | 0.00 | 0.00 | 58 | 1005.6 |
| 20260504034522 | 15 | 210 | 1.6 | 6.4 | 0.00 | 0.00 | 0.00 | 57 | 1005.6 |
| 20260504033019 | 16 | 210 | 3.2 | 8.0 | 0.00 | 0.00 | 0.00 | 56 | 1005.8 |
| 20260504031515 | 16 | 171 | 1.6 | 8.0 | 0.00 | 0.00 | 0.00 | 55 | 1006.0 |
| 20260504030021 | 16 | 257 | 3.2 | 9.7 | 0.00 | 0.00 | 0.00 | 54 | 1006.0 |
| 20260504024512 | 16 | 247 | 3.2 | 8.0 | 0.00 | 0.00 | 0.00 | 53 | 1005.9 |
| 20260504023005 | 16 | 175 | 1.6 | 9.7 | 0.00 | 0.00 | 0.00 | 53 | 1005.9 |
| 20260504021507 | 17 | 180 | 3.2 | 9.7 | 0.00 | 0.00 | 0.00 | 52 | 1005.9 |
| 20260504020026 | 17 | 200 | 1.6 | 14.5 | 0.00 | 0.00 | 0.00 | 51 | 1005.8 |
| 20260504014533 | 17 | 214 | 3.2 | 11.3 | 0.00 | 0.00 | 0.00 | 51 | 1005.5 |
| 20260504013031 | 17 | 211 | 1.6 | 11.3 | 0.00 | 0.00 | 0.00 | 50 | 1005.4 |
| 20260504011521 | 17 | 239 | 1.6 | 11.3 | 0.00 | 0.00 | 0.00 | 49 | 1005.2 |
| 20260504010019 | 18 | 242 | 1.6 | 6.4 | 0.00 | 0.00 | 0.00 | 47 | 1005.1 |
| 20260504004532 | 18 | 206 | 3.2 | 12.9 | 0.00 | 0.00 | 0.00 | 45 | 1005.3 |
| 20260504003008 | 19 | 237 | 3.2 | 22.5 | 0.00 | 0.00 | 0.00 | 44 | 1005.3 |
| 20260504001528 | 19 | 239 | 4.8 | 14.5 | 0.00 | 0.00 | 0.00 | 43 | 1005.2 |
| 20260504000023 | 19 | 231 | 3.2 | 24.1 | 0.00 | 0.00 | 0.00 | 42 | 1005.3 |
| 20260503234523 | 20 | 247 | 9.7 | 19.3 | 0.00 | 0.00 | 0.00 | 42 | 1005.2 |
| 20260503233021 | 20 | 212 | 4.8 | 16.1 | 0.00 | 0.00 | 0.00 | 41 | 1005.3 |
| 20260503231520 | 20 | 199 | 9.7 | 20.9 | 0.00 | 0.00 | 0.00 | 40 | 1005.4 |
| 20260503230019 | 20 | 234 | 3.2 | 16.1 | 0.00 | 0.00 | 0.00 | 41 | 1005.5 |
| 20260503224513 | 19 | 226 | 8.0 | 27.4 | 0.00 | 0.00 | 0.00 | 40 | 1005.7 |
| 20260503223028 | 19 | 226 | 6.4 | 24.1 | 0.00 | 0.00 | 0.00 | 40 | 1005.8 |
| 20260503221526 | 19 | 193 | 6.4 | 25.7 | 0.00 | 0.00 | 0.00 | 40 | 1006.1 |
| 20260503220038 | 19 | 185 | 8.0 | 25.7 | 0.00 | 0.00 | 0.00 | 39 | 1006.1 |
| 20260503214522 | 19 | 185 | 11.3 | 32.2 | 0.00 | 0.00 | 0.00 | 39 | 1006.1 |
| 20260503213022 | 19 | 233 | 8.0 | 20.9 | 0.00 | 0.00 | 0.00 | 38 | 1006.4 |
| 20260503211521 | 19 | 256 | 9.7 | 27.4 | 0.00 | 0.00 | 0.00 | 37 | 1006.7 |
| 20260503210019 | 19 | 256 | 16.1 | 48.3 | 0.00 | 0.00 | 0.00 | 37 | 1006.9 |
| 20260503204527 | 19 | 231 | 9.7 | 32.2 | 0.00 | 0.00 | 0.00 | 38 | 1007.2 |
| 20260503203032 | 20 | 268 | 8.0 | 19.3 | 0.00 | 0.00 | 0.00 | 39 | 1007.6 |
| 20260503201511 | 18 | 157 | 8.0 | 29.0 | 0.00 | 0.00 | 0.00 | 42 | 1007.9 |
| 20260503200010 | 17 | 245 | 8.0 | 22.5 | 0.00 | 0.00 | 0.00 | 45 | 1008.1 |
| 20260503194507 | 17 | 214 | 6.4 | 22.5 | 0.00 | 0.00 | 0.00 | 47 | 1008.3 |
| 20260503193006 | 16 | 212 | 11.3 | 24.1 | 0.00 | 0.00 | 0.00 | 46 | 1008.5 |
| 20260503191505 | 16 | 238 | 9.7 | 25.7 | 0.00 | 0.00 | 0.00 | 47 | 1008.7 |
| 20260503190004 | 15 | 121 | 8.0 | 24.1 | 0.00 | 0.00 | 0.00 | 49 | 1008.8 |
| 20260503184523 | 15 | 199 | 11.3 | 32.2 | 0.00 | 0.00 | 0.00 | 50 | 1009.3 |
| 20260503183018 | 14 | 199 | 9.7 | 20.9 | 0.00 | 0.00 | 0.00 | 53 | 1009.6 |
| 20260503181514 | 13 | 243 | 6.4 | 20.9 | 0.00 | 0.00 | 0.00 | 57 | 1009.9 |
| 20260503180011 | 12 | 249 | 4.8 | 25.7 | 0.00 | 0.00 | 0.00 | 59 | 1010.6 |
| 20260503174508 | 12 | 246 | 9.7 | 20.9 | 0.00 | 0.00 | 0.00 | 60 | 1011.3 |
| 20260503173027 | 12 | 270 | 4.8 | 24.1 | 0.00 | 0.00 | 0.00 | 62 | 1011.6 |
| 20260503171526 | 11 | 225 | 4.8 | 24.1 | 0.00 | 0.00 | 0.00 | 65 | 1012.0 |
| 20260503081514 | 7 | 257 | 1.6 | 8.0 | 0.00 | 0.00 | 0.00 | 55 | 1014.0 |
| 20260503071510 | 7 | 208 | 1.6 | 6.4 | 0.00 | 0.00 | 0.00 | 54 | 1014.3 |
| 20260503054526 | 7 | 169 | 1.6 | 4.8 | 0.00 | 0.00 | 0.00 | 54 | 1015.2 |
| 20260503053034 | 7 | 172 | 0.0 | 4.8 | 0.00 | 0.00 | 0.00 | 55 | 1015.2 |
| 20260503051516 | 7 | 212 | 0.0 | 8.0 | 0.00 | 0.00 | 0.00 | 56 | 1015.4 |
| 20260503050010 | 7 | 185 | 0.0 | 6.4 | 0.00 | 0.00 | 0.00 | 58 | 1015.5 |
| 20260503043014 | 6 | 224 | 0.0 | 3.2 | 0.00 | 0.00 | 0.00 | 63 | 1015.6 |
| 20260503041526 | 6 | 240 | 0.0 | 0.0 | 0.00 | 0.00 | 0.00 | 64 | 1015.6 |